W0NLK-13 Weather Reports


time (UTC)temp
C
wind
direction
speed
KPH
gust
KPH
rain 1hr
cm
rain 24hr
cm
rain mn
cm
humidity
%
barometer
mb
20260906214814 33 79 6.4 19.3 0.00 0.00 0.00
20260906213812 33 160 16.1 19.3 0.00 0.00 0.00
20260906213311 34 107 8.0 22.5 0.00 0.00 0.00
20260906212809 34 113 12.9 20.9 0.00 0.00 0.00
20260906211807 33 114 9.7 17.7 0.00 0.00 0.00
20260906210804 34 93 8.0 17.7 0.00 0.00 0.00
20260906210304 34 99 6.4 16.1 0.00 0.00 0.00
20260906203758 33 177 0.0 14.5 0.00 0.00 0.00
20260906203255 34 160 4.8 20.9 0.00 0.00 0.00
20260906202253 33 169 4.8 12.9 0.00 0.00 0.00
20260906201752 33 87 8.0 20.9 0.00 0.00 0.00
20260906201251 33 103 4.8 20.9 0.00 0.00 0.00
20260906200749 33 94 8.0 16.1 0.00 0.00 0.00
20260906200246 33 107 3.2 14.5 0.00 0.00 0.00
20260906195746 33 119 3.2 9.7 0.00 0.00 0.00
20260906195245 33 136 1.6 12.9 0.00 0.00 0.00
20260906194743 32 103 3.2 17.7 0.00 0.00 0.00
20260906194241 33 76 12.9 14.5 0.00 0.00 0.00
20260906193237 32 109 11.3 14.5 0.00 0.00 0.00
20260906192235 33 104 4.8 11.3 0.00 0.00 0.00
20260906191734 33 125 4.8 11.3 0.00 0.00 0.00
20260906190730 32 93 1.6 16.1 0.00 0.00 0.00
20260906190226 32 184 1.6 12.9 0.00 0.00 0.00
20260906185224 32 124 9.7 17.7 0.00 0.00 0.00
20260906184222 32 80 9.7 20.9 0.00 0.00 0.00
20260906183722 32 140 8.0 9.7 0.00 0.00 0.00
20260906182719 31 235 3.2 16.1 0.00 0.00 0.00
20260906182218 32 161 3.2 20.9 0.00 0.00 0.00
20260906181716 31 85 12.9 16.1 0.00 0.00 0.00
20260906180714 31 84 12.9 16.1 0.00 0.00 0.00
20260906175710 32 104 6.4 16.1 0.00 0.00 0.00
20260906175206 31 142 1.6 11.3 0.00 0.00 0.00
20260906174705 31 84 4.8 11.3 0.00 0.00 0.00
20260906174202 30 119 6.4 8.0 0.00 0.00 0.00
20260906173700 30 82 3.2 14.5 0.00 0.00 0.00
20260906173157 30 112 8.0 14.5 0.00 0.00 0.00
20260906172153 30 101 3.2 14.5 0.00 0.00 0.00
20260906171650 30 55 8.0 11.3 0.00 0.00 0.00
20260906171150 30 190 1.6 6.4 0.00 0.00 0.00
20260906170648 30 155 4.8 11.3 0.00 0.00 0.00
20260906170146 30 74 6.4 12.9 0.00 0.00 0.00
20260906165646 29 126 3.2 16.1 0.00 0.00 0.00
20260906164640 29 82 14.5 16.1 0.00 0.00 0.00
20260906163639 29 117 6.4 14.5 0.00 0.00 0.00
20260906163139 29 58 4.8 12.9 0.00 0.00 0.00
20260906162638 29 80 8.0 12.9 0.00 0.00 0.00
20260906162136 28 114 4.8 12.9 0.00 0.00 0.00
20260906161133 28 96 8.0 12.9 0.00 0.00 0.00
20260906160631 28 80 3.2 11.3 0.00 0.00 0.00
20260906160128 27 92 6.4 12.9 0.00 0.00 0.00
20260906155626 27 59 3.2 12.9 0.00 0.00 0.00
20260906155125 27 49 4.8 11.3 0.00 0.00 0.00
20260906154624 26 317 4.8 8.0 0.00 0.00 0.00
20260906154123 26 65 6.4 11.3 0.00 0.00 0.00
20260906153620 26 329 3.2 8.0 0.00 0.00 0.00
20260906152613 26 352 8.0 8.0 0.00 0.00 0.00
20260906151105 25 312 4.8 9.7 0.00 0.00 0.00
20260906150604 25 308 3.2 9.7 0.00 0.00 0.00
20260906145057 24 310 4.8 9.7 0.00 0.00 0.00
20260906144054 23 316 6.4 11.3 0.00 0.00 0.00
20260906143552 23 317 4.8 9.7 0.00 0.00 0.00
20260906143051 23 313 9.7 11.3 0.00 0.00 0.00
20260906142047 23 296 4.8 9.7 0.00 0.00 0.00
20260906141547 23 313 3.2 9.7 0.00 0.00 0.00
20260906141046 22 316 1.6 12.9 0.00 0.00 0.00
20260906140040 22 268 4.8 8.0 0.00 0.00 0.00
20260906135035 21 336 4.8 4.8 0.00 0.00 0.00
20260906133529 20 337 0.0 1.6 0.00 0.00 0.00
20260906132524 20 336 1.6 6.4 0.00 0.00 0.00
20260906132022 19 47 0.0 4.8 0.00 0.00 0.00
20260906131518 19 47 1.6 8.0 0.00 0.00 0.00
20260906131018 19 356 3.2 6.4 0.00 0.00 0.00
20260906130014 19 273 0.0 1.6 0.00 0.00 0.00
20260906125512 18 272 0.0 3.2 0.00 0.00 0.00
20260906124006 17 272 0.0 3.2 0.00 0.00 0.00
20260906123504 18 272 1.6 3.2 0.00 0.00 0.00
20260906121956 18 275 1.6 6.4 0.00 0.00 0.00
20260906121456 18 277 4.8 6.4 0.00 0.00 0.00
20260906120954 17 276 1.6 3.2 0.00 0.00 0.00
20260906120454 17 277 0.0 0.0 0.00 0.00 0.00
20260906115952 17 276 0.0 0.0 0.00 0.00 0.00
20260906115449 17 277 0.0 4.8 0.00 0.00 0.00
20260906114946 17 277 0.0 4.8 0.00 0.00 0.00
20260906113942 17 275 1.6 1.6 0.00 0.00 0.00
20260906113440 18 277 0.0 3.2 0.00 0.00 0.00
20260906112937 19 276 1.6 6.4 0.00 0.00 0.00
20260906111427 18 261 3.2 8.0 0.00 0.00 0.00
20260906110926 18 231 3.2 6.4 0.00 0.00 0.00
20260906110424 18 230 1.6 6.4 0.00 0.00 0.00
20260906105922 18 230 4.8 4.8 0.00 0.00 0.00
20260906105421 17 228 0.0 1.6 0.00 0.00 0.00
20260906104917 17 228 0.0 6.4 0.00 0.00 0.00
20260906103909 17 204 0.0 0.0 0.00 0.00 0.00
20260906102905 16 203 0.0 0.0 0.00 0.00 0.00
20260906102402 16 203 0.0 0.0 0.00 0.00 0.00
20260906101900 17 203 0.0 0.0 0.00 0.00 0.00
20260906101357 16 204 0.0 1.6 0.00 0.00 0.00
20260906100853 17 203 0.0 0.0 0.00 0.00 0.00
20260906100351 17 204 0.0 1.6 0.00 0.00 0.00
20260906095847 17 203 0.0 3.2 0.00 0.00 0.00
20260906094345 18 278 0.0 0.0 0.00 0.00 0.00
20260906092336 20 278 0.0 1.6 0.00 0.00 0.00
20260906091835 20 277 0.0 3.2 0.00 0.00 0.00
20260906091329 21 277 0.0 3.2 0.00 0.00 0.00
20260906090828 21 278 0.0 4.8 0.00 0.00 0.00
20260906090324 20 278 0.0 0.0 0.00 0.00 0.00
20260906085823 20 278 0.0 3.2 0.00 0.00 0.00
20260906084818 21 278 0.0 3.2 0.00 0.00 0.00
20260906083308 20 268 0.0 0.0 0.00 0.00 0.00
20260906082305 21 267 0.0 4.8 0.00 0.00 0.00
20260906081802 21 267 0.0 6.4 0.00 0.00 0.00
20260906081257 21 271 4.8 6.4 0.00 0.00 0.00
20260906080756 20 285 3.2 6.4 0.00 0.00 0.00
20260906080252 20 310 0.0 3.2 0.00 0.00 0.00
20260906075246 20 310 0.0 0.0 0.00 0.00 0.00
20260906074744 20 310 0.0 0.0 0.00 0.00 0.00
20260906074241 20 310 0.0 0.0 0.00 0.00 0.00
20260906073739 20 311 0.0 0.0 0.00 0.00 0.00
20260906072232 20 309 0.0 0.0 0.00 0.00 0.00
20260906071730 20 310 0.0 0.0 0.00 0.00 0.00
20260906071227 20 310 0.0 0.0 0.00 0.00 0.00
20260906070725 20 311 0.0 0.0 0.00 0.00 0.00
20260906070223 20 311 0.0 0.0 0.00 0.00 0.00
20260906065719 20 310 0.0 0.0 0.00 0.00 0.00
20260906064212 20 309 0.0 3.2 0.00 0.00 0.00
20260906063710 20 309 0.0 3.2 0.00 0.00 0.00
20260906063209 20 330 0.0 3.2 0.00 0.00 0.00
20260906062707 21 330 0.0 3.2 0.00 0.00 0.00
20260906062205 22 330 0.0 0.0 0.00 0.00 0.00
20260906061703 22 330 0.0 1.6 0.00 0.00 0.00
20260906061202 21 330 0.0 4.8 0.00 0.00 0.00
20260906060659 21 330 1.6 3.2 0.00 0.00 0.00
20260906060158 22 330 1.6 1.6 0.00 0.00 0.00
20260906055655 22 331 0.0 0.0 0.00 0.00 0.00
20260906055152 22 330 0.0 0.0 0.00 0.00 0.00
20260906054650 22 331 0.0 0.0 0.00 0.00 0.00
20260906054148 23 331 0.0 0.0 0.00 0.00 0.00
20260906053140 22 330 0.0 0.0 0.00 0.00 0.00
20260906052638 22 331 0.0 3.2 0.00 0.00 0.00
20260906052136 23 331 0.0 9.7 0.00 0.00 0.00
20260906051131 22 321 3.2 6.4 0.00 0.00 0.00
20260906050628 22 321 0.0 3.2 0.00 0.00 0.00
20260906050126 22 321 0.0 3.2 0.00 0.00 0.00
20260906045623 22 322 0.0 4.8 0.00 0.00 0.00
20260906045121 22 337 0.0 0.0 0.00 0.00 0.00
20260906044116 22 336 0.0 0.0 0.00 0.00 0.00
20260906043614 23 336 0.0 0.0 0.00 0.00 0.00
20260906042612 22 336 0.0 4.8 0.00 0.00 0.00
20260906040601 24 336 1.6 3.2 0.00 0.00 0.00
20260906040059 24 336 0.0 4.8 0.00 0.00 0.00
20260906034550 25 321 0.0 4.8 0.00 0.00 0.00
20260906034048 25 320 1.6 8.0 0.00 0.00 0.00
20260906032043 26 79 3.2 12.9 0.00 0.00 0.00
20260906031038 26 259 0.0 1.6 0.00 0.00 0.00
20260906030537 26 257 0.0 3.2 0.00 0.00 0.00
20260906030036 26 258 0.0 1.6 0.00 0.00 0.00
20260906025535 26 258 1.6 4.8 0.00 0.00 0.00
20260906024024 26 323 0.0 1.6 0.00 0.00 0.00
20260906023522 26 323 0.0 0.0 0.00 0.00 0.00
20260906023017 25 323 0.0 0.0 0.00 0.00 0.00
20260906022514 25 328 0.0 3.2 0.00 0.00 0.00
20260906020506 25 0 0.0 1.6 0.00 0.00 0.00
20260906015457 25 0 0.0 0.0 0.00 0.00 0.00
20260906014956 26 0 0.0 0.0 0.00 0.00 0.00
20260906013954 26 0 0.0 0.0 0.00 0.00 0.00
20260906013452 26 0 0.0 1.6 0.00 0.00 0.00
20260906012951 27 0 0.0 0.0 0.00 0.00 0.00
20260906012449 27 0 0.0 1.6 0.00 0.00 0.00
20260906010946 28 0 0.0 4.8 0.00 0.00 0.00
20260906005940 28 42 0.0 9.7 0.00 0.00 0.00
20260906005436 28 353 3.2 9.7 0.00 0.00 0.00
20260906004934 28 350 1.6 3.2 0.00 0.00 0.00
20260906004432 29 351 0.0 1.6 0.00 0.00 0.00
20260906003429 30 350 1.6 4.8 0.00 0.00 0.00
20260906002928 30 352 1.6 4.8 0.00 0.00 0.00
20260906002423 30 351 1.6 9.7 0.00 0.00 0.00
20260906001919 30 332 4.8 11.3 0.00 0.00 0.00
20260906001418 31 48 3.2 16.1 0.00 0.00 0.00
20260906000915 31 69 12.9 17.7 0.00 0.00 0.00
20260905235912 31 92 11.3 14.5 0.00 0.00 0.00
20260905235411 31 160 4.8 17.7 0.00 0.00 0.00
20260905233907 32 150 11.3 17.7 0.00 0.00 0.00
20260905233406 32 167 4.8 16.1 0.00 0.00 0.00
20260905232403 33 189 6.4 9.7 0.00 0.00 0.00
20260905231903 33 196 4.8 12.9 0.00 0.00 0.00
20260905230901 33 217 3.2 16.1 0.00 0.00 0.00
20260905230400 32 179 4.8 19.3 0.00 0.00 0.00
20260905225358 34 184 6.4 17.7 0.00 0.00 0.00
20260905224356 33 162 11.3 16.1 0.00 0.00 0.00
20260905223855 33 141 8.0 12.9 0.00 0.00 0.00
20260905222349 34 126 3.2 20.9 0.00 0.00 0.00
20260905221848 34 76 17.7 17.7 0.00 0.00 0.00
20260905220845 34 255 3.2 12.9 0.00 0.00 0.00
20260905215342 34 111 4.8 14.5 0.00 0.00 0.00